Year,Month,Day,Hour,Minute,Value (Times are PST for temperature in C)
2007,07,04,00,00,15.50
2007,07,04,00,01,15.50
2007,07,04,00,02,15.50
2007,07,04,00,03,15.50
2007,07,04,00,04,15.50
2007,07,04,00,05,15.50
2007,07,04,00,06,15.40
2007,07,04,00,07,15.40
2007,07,04,00,08,15.30
2007,07,04,00,09,15.30
2007,07,04,00,10,15.30
2007,07,04,00,11,15.30
2007,07,04,00,12,15.20
2007,07,04,00,13,15.20
2007,07,04,00,14,15.20
2007,07,04,00,15,15.10
2007,07,04,00,16,15.10
2007,07,04,00,17,15.10
2007,07,04,00,18,15.00
2007,07,04,00,19,15.00
2007,07,04,00,20,14.90
2007,07,04,00,21,14.90
2007,07,04,00,22,14.90
2007,07,04,00,23,14.90
2007,07,04,00,24,14.90
2007,07,04,00,25,14.80
2007,07,04,00,26,14.80
2007,07,04,00,27,14.80
2007,07,04,00,28,14.80
2007,07,04,00,29,14.80
2007,07,04,00,30,14.80
2007,07,04,00,31,14.90
2007,07,04,00,32,14.90
2007,07,04,00,33,14.90
2007,07,04,00,34,14.90
2007,07,04,00,35,14.90
2007,07,04,00,36,14.90
2007,07,04,00,37,14.90
2007,07,04,00,38,14.90
2007,07,04,00,39,15.00
2007,07,04,00,40,15.00
2007,07,04,00,41,15.00
2007,07,04,00,42,15.10
2007,07,04,00,43,15.10
2007,07,04,00,44,15.20
2007,07,04,00,45,15.20
2007,07,04,00,46,15.30
2007,07,04,00,47,15.30
2007,07,04,00,48,15.30
2007,07,04,00,49,15.30
2007,07,04,00,50,15.30
2007,07,04,00,51,15.30
2007,07,04,00,52,15.30
2007,07,04,00,53,15.30
2007,07,04,00,54,15.30
2007,07,04,00,55,15.30
2007,07,04,00,56,15.30
2007,07,04,00,57,15.30
2007,07,04,00,58,15.30
2007,07,04,00,59,15.30
2007,07,04,01,00,15.30
2007,07,04,01,01,15.30
2007,07,04,01,02,15.30
2007,07,04,01,03,15.30
2007,07,04,01,04,15.30
2007,07,04,01,05,15.30
2007,07,04,01,06,15.30
2007,07,04,01,07,15.30
2007,07,04,01,08,15.30
2007,07,04,01,09,15.30
2007,07,04,01,10,15.20
2007,07,04,01,11,15.20
2007,07,04,01,12,15.20
2007,07,04,01,13,15.20
2007,07,04,01,14,15.20
2007,07,04,01,15,15.10
2007,07,04,01,16,15.10
2007,07,04,01,17,15.10
2007,07,04,01,18,15.10
2007,07,04,01,19,15.10
2007,07,04,01,20,15.10
2007,07,04,01,21,15.10
2007,07,04,01,22,15.00
2007,07,04,01,23,15.00
2007,07,04,01,24,15.00
2007,07,04,01,25,15.00
2007,07,04,01,26,15.00
2007,07,04,01,27,15.00
2007,07,04,01,28,15.00
2007,07,04,01,29,15.00
2007,07,04,01,30,15.00
2007,07,04,01,31,15.00
2007,07,04,01,32,15.00
2007,07,04,01,33,15.10
2007,07,04,01,34,15.10
2007,07,04,01,35,15.10
2007,07,04,01,36,15.10
2007,07,04,01,37,15.10
2007,07,04,01,38,15.20
2007,07,04,01,39,15.20
2007,07,04,01,40,15.20
2007,07,04,01,41,15.30
2007,07,04,01,42,15.30
2007,07,04,01,43,15.30
2007,07,04,01,44,15.30
2007,07,04,01,45,15.30
2007,07,04,01,46,15.40
2007,07,04,01,47,15.40
2007,07,04,01,48,15.40
2007,07,04,01,49,15.40
2007,07,04,01,50,15.40
2007,07,04,01,51,15.40
2007,07,04,01,52,15.40
2007,07,04,01,53,15.40
2007,07,04,01,54,15.40
2007,07,04,01,55,15.40
2007,07,04,01,56,15.40
2007,07,04,01,57,15.40
2007,07,04,01,58,15.40
2007,07,04,01,59,15.30
2007,07,04,02,00,15.30
2007,07,04,02,01,15.30
2007,07,04,02,02,15.30
2007,07,04,02,03,15.30
2007,07,04,02,04,15.30
2007,07,04,02,05,15.30
2007,07,04,02,06,15.30
2007,07,04,02,07,15.40
2007,07,04,02,08,15.40
2007,07,04,02,09,15.40
2007,07,04,02,10,15.40
2007,07,04,02,11,15.50
2007,07,04,02,12,15.50
2007,07,04,02,13,15.50
2007,07,04,02,14,15.60
2007,07,04,02,15,15.60
2007,07,04,02,16,15.60
2007,07,04,02,17,15.50
2007,07,04,02,18,15.50
2007,07,04,02,19,15.50
2007,07,04,02,20,15.50
2007,07,04,02,21,15.40
2007,07,04,02,22,15.40
2007,07,04,02,23,15.40
2007,07,04,02,24,15.30
2007,07,04,02,25,15.30
2007,07,04,02,26,15.30
2007,07,04,02,27,15.30
2007,07,04,02,28,15.30
2007,07,04,02,29,15.30
2007,07,04,02,30,15.30
2007,07,04,02,31,15.30
2007,07,04,02,32,15.20
2007,07,04,02,33,15.20
2007,07,04,02,34,15.20
2007,07,04,02,35,15.20
2007,07,04,02,36,15.10
2007,07,04,02,37,15.10
2007,07,04,02,38,15.10
2007,07,04,02,39,15.10
2007,07,04,02,40,15.10
2007,07,04,02,41,15.10
2007,07,04,02,42,15.10
2007,07,04,02,43,15.10
2007,07,04,02,44,15.00
2007,07,04,02,45,15.00
2007,07,04,02,46,15.00
2007,07,04,02,47,15.10
2007,07,04,02,48,15.10
2007,07,04,02,49,15.10
2007,07,04,02,50,15.10
2007,07,04,02,51,15.10
2007,07,04,02,52,15.10
2007,07,04,02,53,15.10
2007,07,04,02,54,15.20
2007,07,04,02,55,15.20
2007,07,04,02,56,15.20
2007,07,04,02,57,15.20
2007,07,04,02,58,15.30
2007,07,04,02,59,15.30
2007,07,04,03,00,15.30
2007,07,04,03,01,15.30
2007,07,04,03,02,15.30
2007,07,04,03,03,15.30
2007,07,04,03,04,15.30
2007,07,04,03,05,15.20
2007,07,04,03,06,15.20
2007,07,04,03,07,15.20
2007,07,04,03,08,15.20
2007,07,04,03,09,15.20
2007,07,04,03,10,15.20
2007,07,04,03,11,15.20
2007,07,04,03,12,15.10
2007,07,04,03,13,15.10
2007,07,04,03,14,15.00
2007,07,04,03,15,15.00
2007,07,04,03,16,14.90
2007,07,04,03,17,14.80
2007,07,04,03,18,14.80
2007,07,04,03,19,14.80
2007,07,04,03,20,14.80
2007,07,04,03,21,14.80
2007,07,04,03,22,14.80
2007,07,04,03,23,14.80
2007,07,04,03,24,14.80
2007,07,04,03,25,14.70
2007,07,04,03,26,14.70
2007,07,04,03,27,14.70
2007,07,04,03,28,14.70
2007,07,04,03,29,14.70
2007,07,04,03,30,14.70
2007,07,04,03,31,14.70
2007,07,04,03,32,14.70
2007,07,04,03,33,14.70
2007,07,04,03,34,14.70
2007,07,04,03,35,14.70
2007,07,04,03,36,14.70
2007,07,04,03,37,14.70
2007,07,04,03,38,14.80
2007,07,04,03,39,14.80
2007,07,04,03,40,14.80
2007,07,04,03,41,14.80
2007,07,04,03,42,14.80
2007,07,04,03,43,14.80
2007,07,04,03,44,14.80
2007,07,04,03,45,14.80
2007,07,04,03,46,14.80
2007,07,04,03,47,14.80
2007,07,04,03,48,14.80
2007,07,04,03,49,14.80
2007,07,04,03,50,14.80
2007,07,04,03,51,14.80
2007,07,04,03,52,14.90
2007,07,04,03,53,14.90
2007,07,04,03,54,14.90
2007,07,04,03,55,14.90
2007,07,04,03,56,14.90
2007,07,04,03,57,14.90
2007,07,04,03,58,14.90
2007,07,04,03,59,15.00
2007,07,04,04,00,15.00
2007,07,04,04,01,15.00
2007,07,04,04,02,15.00
2007,07,04,04,03,15.00
2007,07,04,04,04,15.10
2007,07,04,04,05,15.10
2007,07,04,04,06,15.10
2007,07,04,04,07,15.10
2007,07,04,04,08,15.10
2007,07,04,04,09,15.10
2007,07,04,04,10,15.00
2007,07,04,04,11,15.00
2007,07,04,04,12,15.00
2007,07,04,04,13,15.00
2007,07,04,04,14,15.00
2007,07,04,04,15,15.00
2007,07,04,04,16,15.00
2007,07,04,04,17,14.90
2007,07,04,04,18,14.90
2007,07,04,04,19,14.90
2007,07,04,04,20,14.90
2007,07,04,04,21,14.80
2007,07,04,04,22,14.80
2007,07,04,04,23,14.80
2007,07,04,04,24,14.80
2007,07,04,04,25,14.80
2007,07,04,04,26,14.80
2007,07,04,04,27,14.80
2007,07,04,04,28,14.80
2007,07,04,04,29,14.80
2007,07,04,04,30,14.80
2007,07,04,04,31,14.80
2007,07,04,04,32,14.80
2007,07,04,04,33,14.80
2007,07,04,04,34,14.80
2007,07,04,04,35,14.80
2007,07,04,04,36,14.80
2007,07,04,04,37,14.80
2007,07,04,04,38,14.80
2007,07,04,04,39,14.70
2007,07,04,04,40,14.70
2007,07,04,04,41,14.70
2007,07,04,04,42,14.60
2007,07,04,04,43,14.60
2007,07,04,04,44,14.60
2007,07,04,04,45,14.60
2007,07,04,04,46,14.50
2007,07,04,04,47,14.50
2007,07,04,04,48,14.50
2007,07,04,04,49,14.50
2007,07,04,04,50,14.50
2007,07,04,04,51,14.40
2007,07,04,04,52,14.40
2007,07,04,04,53,14.40
2007,07,04,04,54,14.40
2007,07,04,04,55,14.30
2007,07,04,04,56,14.30
2007,07,04,04,57,14.30
2007,07,04,04,58,14.20
2007,07,04,04,59,14.20
2007,07,04,05,00,14.20
2007,07,04,05,01,14.20
2007,07,04,05,02,14.20
2007,07,04,05,03,14.20
2007,07,04,05,04,14.20
2007,07,04,05,05,14.20
2007,07,04,05,06,14.10
2007,07,04,05,07,14.10
2007,07,04,05,08,14.10
2007,07,04,05,09,14.10
2007,07,04,05,10,14.10
2007,07,04,05,11,14.10
2007,07,04,05,12,14.10
2007,07,04,05,13,14.10
2007,07,04,05,14,14.10
2007,07,04,05,15,14.10
2007,07,04,05,16,14.10
2007,07,04,05,17,14.10
2007,07,04,05,18,14.00
2007,07,04,05,19,14.00
2007,07,04,05,20,14.00
2007,07,04,05,21,14.00
2007,07,04,05,22,14.00
2007,07,04,05,23,14.00
2007,07,04,05,24,14.00
2007,07,04,05,25,14.00
2007,07,04,05,26,14.00
2007,07,04,05,27,14.00
2007,07,04,05,28,14.00
2007,07,04,05,29,13.90
2007,07,04,05,30,13.90
2007,07,04,05,31,13.90
2007,07,04,05,32,13.90
2007,07,04,05,33,13.90
2007,07,04,05,34,13.90
2007,07,04,05,35,13.80
2007,07,04,05,36,13.80
2007,07,04,05,37,13.80
2007,07,04,05,38,13.80
2007,07,04,05,39,13.80
2007,07,04,05,40,13.80
2007,07,04,05,41,13.80
2007,07,04,05,42,13.80
2007,07,04,05,43,13.70
2007,07,04,05,44,13.70
2007,07,04,05,45,13.70
2007,07,04,05,46,13.70
2007,07,04,05,47,13.70
2007,07,04,05,48,13.70
2007,07,04,05,49,13.70
2007,07,04,05,50,13.70
2007,07,04,05,51,13.70
2007,07,04,05,52,13.70
2007,07,04,05,53,13.70
2007,07,04,05,54,13.80
2007,07,04,05,55,13.80
2007,07,04,05,56,13.90
2007,07,04,05,57,13.90
2007,07,04,05,58,14.00
2007,07,04,05,59,14.00
2007,07,04,06,00,14.10
2007,07,04,06,01,14.20
2007,07,04,06,02,14.20
2007,07,04,06,03,14.30
2007,07,04,06,04,14.40
2007,07,04,06,05,14.40
2007,07,04,06,06,14.50
2007,07,04,06,07,14.60
2007,07,04,06,08,14.60
2007,07,04,06,09,14.70
2007,07,04,06,10,14.80
2007,07,04,06,11,14.80
2007,07,04,06,12,14.90
2007,07,04,06,13,14.90
2007,07,04,06,14,15.00
2007,07,04,06,15,15.10
2007,07,04,06,16,15.10
2007,07,04,06,17,15.20
2007,07,04,06,18,15.30
2007,07,04,06,19,15.30
2007,07,04,06,20,15.30
2007,07,04,06,21,15.40
2007,07,04,06,22,15.50
2007,07,04,06,23,15.50
2007,07,04,06,24,15.60
2007,07,04,06,25,15.70
2007,07,04,06,26,15.70
2007,07,04,06,27,15.80
2007,07,04,06,28,15.80
2007,07,04,06,29,15.80
2007,07,04,06,30,15.80
2007,07,04,06,31,15.80
2007,07,04,06,32,15.80
2007,07,04,06,33,15.80
2007,07,04,06,34,15.80
2007,07,04,06,35,15.80
2007,07,04,06,36,15.70
2007,07,04,06,37,15.70
2007,07,04,06,38,15.60
2007,07,04,06,39,15.60
2007,07,04,06,40,15.50
2007,07,04,06,41,15.50
2007,07,04,06,42,15.50
2007,07,04,06,43,15.40
2007,07,04,06,44,15.40
2007,07,04,06,45,15.40
2007,07,04,06,46,15.40
2007,07,04,06,47,15.50
2007,07,04,06,48,15.50
2007,07,04,06,49,15.50
2007,07,04,06,50,15.50
2007,07,04,06,51,15.50
2007,07,04,06,52,15.50
2007,07,04,06,53,15.50
2007,07,04,06,54,15.50
2007,07,04,06,55,15.50
2007,07,04,06,56,15.60
2007,07,04,06,57,15.60
2007,07,04,06,58,15.60
2007,07,04,06,59,15.60
2007,07,04,07,00,15.70
2007,07,04,07,01,15.80
2007,07,04,07,02,15.80
2007,07,04,07,03,15.90
2007,07,04,07,04,16.10
2007,07,04,07,05,16.10
2007,07,04,07,06,16.20
2007,07,04,07,07,16.30
2007,07,04,07,08,16.30
2007,07,04,07,09,16.30
2007,07,04,07,10,16.40
2007,07,04,07,11,16.40
2007,07,04,07,12,16.40
2007,07,04,07,13,16.60
2007,07,04,07,14,16.60
2007,07,04,07,15,16.60
2007,07,04,07,16,16.70
2007,07,04,07,17,16.70
2007,07,04,07,18,16.70
2007,07,04,07,19,16.70
2007,07,04,07,20,16.70
2007,07,04,07,21,16.70
2007,07,04,07,22,16.70
2007,07,04,07,23,16.70
2007,07,04,07,24,16.70
2007,07,04,07,25,16.70
2007,07,04,07,26,16.70
2007,07,04,07,27,16.80
2007,07,04,07,28,16.80
2007,07,04,07,29,16.80
2007,07,04,07,30,16.90
2007,07,04,07,31,16.90
2007,07,04,07,32,16.90
2007,07,04,07,33,16.90
2007,07,04,07,34,17.00
2007,07,04,07,35,17.00
2007,07,04,07,36,17.00
2007,07,04,07,37,17.00
2007,07,04,07,38,17.10
2007,07,04,07,39,17.10
2007,07,04,07,40,17.20
2007,07,04,07,41,17.20
2007,07,04,07,42,17.30
2007,07,04,07,43,17.30
2007,07,04,07,44,17.30
2007,07,04,07,45,17.40
2007,07,04,07,46,17.50
2007,07,04,07,47,17.60
2007,07,04,07,48,17.70
2007,07,04,07,49,17.70
2007,07,04,07,50,17.80
2007,07,04,07,51,17.90
2007,07,04,07,52,17.90
2007,07,04,07,53,17.90
2007,07,04,07,54,17.90
2007,07,04,07,55,17.90
2007,07,04,07,56,17.90
2007,07,04,07,57,17.90
2007,07,04,07,58,17.90
2007,07,04,07,59,17.90
2007,07,04,08,00,17.90
2007,07,04,08,01,17.90
2007,07,04,08,02,18.00
2007,07,04,08,03,18.10
2007,07,04,08,04,18.10
2007,07,04,08,05,18.20
2007,07,04,08,06,18.20
2007,07,04,08,07,18.20
2007,07,04,08,08,18.20
2007,07,04,08,09,18.20
2007,07,04,08,10,18.20
2007,07,04,08,11,18.20
2007,07,04,08,12,18.20
2007,07,04,08,13,18.20
2007,07,04,08,14,18.20
2007,07,04,08,15,18.20
2007,07,04,08,16,18.20
2007,07,04,08,17,18.20
2007,07,04,08,18,18.20
2007,07,04,08,19,18.20
2007,07,04,08,20,18.20
2007,07,04,08,21,18.20
2007,07,04,08,22,18.20
2007,07,04,08,23,18.20
2007,07,04,08,24,18.20
2007,07,04,08,25,18.20
2007,07,04,08,26,18.20
2007,07,04,08,27,18.20
2007,07,04,08,28,18.20
2007,07,04,08,29,18.30
2007,07,04,08,30,18.30
2007,07,04,08,31,18.40
2007,07,04,08,32,18.50
2007,07,04,08,33,18.60
2007,07,04,08,34,18.70
2007,07,04,08,35,18.70
2007,07,04,08,36,18.80
2007,07,04,08,37,18.80
2007,07,04,08,38,18.70
2007,07,04,08,39,18.70
2007,07,04,08,40,18.60
2007,07,04,08,41,18.60
2007,07,04,08,42,18.50
2007,07,04,08,43,18.50
2007,07,04,08,44,18.50
2007,07,04,08,45,18.40
2007,07,04,08,46,18.30
2007,07,04,08,47,18.30
2007,07,04,08,48,18.30
2007,07,04,08,49,18.40
2007,07,04,08,50,18.40
2007,07,04,08,51,18.40
2007,07,04,08,52,18.50
2007,07,04,08,53,18.50
2007,07,04,08,54,18.50
2007,07,04,08,55,18.60
2007,07,04,08,56,18.60
2007,07,04,08,57,18.60
2007,07,04,08,58,18.70
2007,07,04,08,59,18.60
2007,07,04,09,00,18.50
2007,07,04,09,01,18.40
2007,07,04,09,02,18.20
2007,07,04,09,03,18.20
2007,07,04,09,04,18.20
2007,07,04,09,05,18.20
2007,07,04,09,06,18.20
2007,07,04,09,07,18.20
2007,07,04,09,08,18.20
2007,07,04,09,09,18.10
2007,07,04,09,10,18.10
2007,07,04,09,11,18.10
2007,07,04,09,12,18.10
2007,07,04,09,13,17.90
2007,07,04,09,14,17.90
2007,07,04,09,15,18.00
2007,07,04,09,16,18.10
2007,07,04,09,17,18.10
2007,07,04,09,18,18.00
2007,07,04,09,19,17.90
2007,07,04,09,20,17.90
2007,07,04,09,21,17.90
2007,07,04,09,22,17.90
2007,07,04,09,23,17.90
2007,07,04,09,24,17.90
2007,07,04,09,25,17.90
2007,07,04,09,26,17.90
2007,07,04,09,27,17.90
2007,07,04,09,28,17.90
2007,07,04,09,29,17.90
2007,07,04,09,30,17.90
2007,07,04,09,31,17.90
2007,07,04,09,32,17.90
2007,07,04,09,33,17.90
2007,07,04,09,34,17.90
2007,07,04,09,35,18.00
2007,07,04,09,36,18.10
2007,07,04,09,37,18.00
2007,07,04,09,38,17.90
2007,07,04,09,39,18.10
2007,07,04,09,40,18.10
2007,07,04,09,41,18.10
2007,07,04,09,42,18.10
2007,07,04,09,43,18.10
2007,07,04,09,44,18.10
2007,07,04,09,45,18.10
2007,07,04,09,46,18.10
2007,07,04,09,47,18.00
2007,07,04,09,48,18.00
2007,07,04,09,49,17.90
2007,07,04,09,50,17.90
2007,07,04,09,51,17.90
2007,07,04,09,52,17.90
2007,07,04,09,53,18.00
2007,07,04,09,54,18.10
2007,07,04,09,55,18.20
2007,07,04,09,56,18.20
2007,07,04,09,57,18.20
2007,07,04,09,58,18.20
2007,07,04,09,59,18.20
2007,07,04,10,00,18.20
2007,07,04,10,01,18.30
2007,07,04,10,02,18.30
2007,07,04,10,03,18.20
2007,07,04,10,04,18.20
2007,07,04,10,05,18.20
2007,07,04,10,06,18.20
2007,07,04,10,07,18.20
2007,07,04,10,08,18.20
2007,07,04,10,09,18.30
2007,07,04,10,10,18.40
2007,07,04,10,11,18.40
2007,07,04,10,12,18.40
2007,07,04,10,13,18.40
2007,07,04,10,14,18.40
2007,07,04,10,15,18.40
2007,07,04,10,16,18.40
2007,07,04,10,17,18.40
2007,07,04,10,18,18.40
2007,07,04,10,19,18.40
2007,07,04,10,20,18.40
2007,07,04,10,21,18.50
2007,07,04,10,22,18.50
2007,07,04,10,23,18.50
2007,07,04,10,24,18.50
2007,07,04,10,25,18.50
2007,07,04,10,26,18.50
2007,07,04,10,27,18.50
2007,07,04,10,28,18.50
2007,07,04,10,29,18.50
2007,07,04,10,30,18.40
2007,07,04,10,31,18.40
2007,07,04,10,32,18.50
2007,07,04,10,33,18.50
2007,07,04,10,34,18.50
2007,07,04,10,35,18.50
2007,07,04,10,36,18.50
2007,07,04,10,37,18.50
2007,07,04,10,38,18.50
2007,07,04,10,39,18.50
2007,07,04,10,40,18.50
2007,07,04,10,41,18.60
2007,07,04,10,42,18.70
2007,07,04,10,43,18.80
2007,07,04,10,44,18.80
2007,07,04,10,45,18.80
2007,07,04,10,46,18.90
2007,07,04,10,47,18.90
2007,07,04,10,48,18.90
2007,07,04,10,49,18.90
2007,07,04,10,50,18.90
2007,07,04,10,51,18.80
2007,07,04,10,52,18.80
2007,07,04,10,53,18.80
2007,07,04,10,54,18.90
2007,07,04,10,55,18.80
2007,07,04,10,56,18.80
2007,07,04,10,57,18.70
2007,07,04,10,58,18.70
2007,07,04,10,59,18.70
2007,07,04,11,00,18.80
2007,07,04,11,01,18.90
2007,07,04,11,02,18.90
2007,07,04,11,03,18.90
2007,07,04,11,04,18.90
2007,07,04,11,05,18.80
2007,07,04,11,06,18.80
2007,07,04,11,07,18.80
2007,07,04,11,08,18.80
2007,07,04,11,09,18.80
2007,07,04,11,10,18.80
2007,07,04,11,11,18.80
2007,07,04,11,12,18.90
2007,07,04,11,13,19.10
2007,07,04,11,14,19.10
2007,07,04,11,15,19.20
2007,07,04,11,16,19.30
2007,07,04,11,17,19.30
2007,07,04,11,18,19.30
2007,07,04,11,19,19.30
2007,07,04,11,20,19.30
2007,07,04,11,21,19.30
2007,07,04,11,22,19.20
2007,07,04,11,23,19.10
2007,07,04,11,24,19.10
2007,07,04,11,25,19.10
2007,07,04,11,26,19.00
2007,07,04,11,27,18.90
2007,07,04,11,28,18.90
2007,07,04,11,29,18.80
2007,07,04,11,30,18.90
2007,07,04,11,31,18.90
2007,07,04,11,32,18.90
2007,07,04,11,33,19.10
2007,07,04,11,34,19.10
2007,07,04,11,35,19.10
2007,07,04,11,36,19.30
2007,07,04,11,37,19.40
2007,07,04,11,38,19.50
2007,07,04,11,39,19.70
2007,07,04,11,40,19.60
2007,07,04,11,41,19.50
2007,07,04,11,42,19.30
2007,07,04,11,43,19.20
2007,07,04,11,44,19.10
2007,07,04,11,45,19.20
2007,07,04,11,46,19.40
2007,07,04,11,47,19.50
2007,07,04,11,48,19.50
2007,07,04,11,49,19.50
2007,07,04,11,50,19.50
2007,07,04,11,51,19.50
2007,07,04,11,52,19.50
2007,07,04,11,53,19.40
2007,07,04,11,54,19.40
2007,07,04,11,55,19.40
2007,07,04,11,56,19.40
2007,07,04,11,57,19.50
2007,07,04,11,58,19.60
2007,07,04,11,59,19.60
2007,07,04,12,00,19.80
2007,07,04,12,01,19.90
2007,07,04,12,02,19.90
2007,07,04,12,03,20.00
2007,07,04,12,04,20.10
2007,07,04,12,05,20.10
2007,07,04,12,06,20.00
2007,07,04,12,07,19.90
2007,07,04,12,08,19.90
2007,07,04,12,09,19.90
2007,07,04,12,10,19.90
2007,07,04,12,11,19.80
2007,07,04,12,12,19.80
2007,07,04,12,13,19.80
2007,07,04,12,14,19.80
2007,07,04,12,15,19.90
2007,07,04,12,16,19.90
2007,07,04,12,17,19.90
2007,07,04,12,18,19.90
2007,07,04,12,19,19.90
2007,07,04,12,20,19.90
2007,07,04,12,21,19.90
2007,07,04,12,22,19.90
2007,07,04,12,23,20.10
2007,07,04,12,24,20.20
2007,07,04,12,25,20.20
2007,07,04,12,26,20.20
2007,07,04,12,27,20.20
2007,07,04,12,28,20.20
2007,07,04,12,29,20.20
2007,07,04,12,30,20.10
2007,07,04,12,31,20.00
2007,07,04,12,32,19.90
2007,07,04,12,33,19.90
2007,07,04,12,34,19.90
2007,07,04,12,35,19.90
2007,07,04,12,36,19.90
2007,07,04,12,37,19.90
2007,07,04,12,38,19.90
2007,07,04,12,39,19.90
2007,07,04,12,40,19.90
2007,07,04,12,41,19.90
2007,07,04,12,42,19.80
2007,07,04,12,43,19.80
2007,07,04,12,44,19.80
2007,07,04,12,45,19.90
2007,07,04,12,46,19.90
2007,07,04,12,47,20.00
2007,07,04,12,48,20.00
2007,07,04,12,49,19.90
2007,07,04,12,50,19.80
2007,07,04,12,51,19.70
2007,07,04,12,52,19.60
2007,07,04,12,53,19.60
2007,07,04,12,54,19.70
2007,07,04,12,55,19.80
2007,07,04,12,56,19.80
2007,07,04,12,57,19.80
2007,07,04,12,58,19.70
2007,07,04,12,59,19.70
2007,07,04,13,00,19.70
2007,07,04,13,01,19.70
2007,07,04,13,02,19.60
2007,07,04,13,03,19.50
2007,07,04,13,04,19.40
2007,07,04,13,05,19.30
2007,07,04,13,06,19.30
2007,07,04,13,07,19.30
2007,07,04,13,08,19.40
2007,07,04,13,09,19.30
2007,07,04,13,10,19.30
2007,07,04,13,11,19.20
2007,07,04,13,12,19.10
2007,07,04,13,13,19.10
2007,07,04,13,14,19.00
2007,07,04,13,15,18.90
2007,07,04,13,16,18.80
2007,07,04,13,17,18.60
2007,07,04,13,18,18.50
2007,07,04,13,19,18.40
2007,07,04,13,23,18.60
2007,07,04,13,24,18.60
2007,07,04,13,25,18.50
2007,07,04,13,26,18.50
2007,07,04,13,27,18.40
2007,07,04,13,28,18.50
2007,07,04,13,29,18.60
2007,07,04,13,30,18.70
2007,07,04,13,31,18.70
2007,07,04,13,32,18.70
2007,07,04,13,33,18.80
2007,07,04,13,34,18.70
2007,07,04,13,35,18.70
2007,07,04,13,36,18.60
2007,07,04,13,37,18.60
2007,07,04,13,38,18.50
2007,07,04,13,39,18.50
2007,07,04,13,40,18.60
2007,07,04,13,41,18.70
2007,07,04,13,42,18.80
2007,07,04,13,43,18.90
2007,07,04,13,44,19.00
2007,07,04,13,45,19.10
2007,07,04,13,46,19.20
2007,07,04,13,47,19.30
2007,07,04,13,48,19.40
2007,07,04,13,49,19.30
2007,07,04,13,50,19.30
2007,07,04,13,51,19.30
2007,07,04,13,52,19.30
2007,07,04,13,53,19.20
2007,07,04,13,54,19.10
2007,07,04,13,55,19.10
2007,07,04,13,56,19.20
2007,07,04,13,57,19.20
2007,07,04,13,58,19.10
2007,07,04,13,59,19.20
2007,07,04,14,00,19.30
2007,07,04,14,01,19.40
2007,07,04,14,02,19.50
2007,07,04,14,03,19.40
2007,07,04,14,04,19.40
2007,07,04,14,05,19.30
2007,07,04,14,06,19.30
2007,07,04,14,07,19.20
2007,07,04,14,08,19.20
2007,07,04,14,09,19.20
2007,07,04,14,10,19.20
2007,07,04,14,11,19.10
2007,07,04,14,12,19.10
2007,07,04,14,13,18.90
2007,07,04,14,14,18.90
2007,07,04,14,15,19.00
2007,07,04,14,16,19.10
2007,07,04,14,17,19.10
2007,07,04,14,18,19.10
2007,07,04,14,19,19.30
2007,07,04,14,20,19.30
2007,07,04,14,21,19.30
2007,07,04,14,22,19.40
2007,07,04,14,23,19.40
2007,07,04,14,24,19.40
2007,07,04,14,25,19.50
2007,07,04,14,26,19.50
2007,07,04,14,27,19.50
2007,07,04,14,28,19.40
2007,07,04,14,29,19.20
2007,07,04,14,30,19.10
2007,07,04,14,31,19.10
2007,07,04,14,32,19.10
2007,07,04,14,33,18.90
2007,07,04,14,34,18.90
2007,07,04,14,35,18.90
2007,07,04,14,36,18.90
2007,07,04,14,37,19.00
2007,07,04,14,38,19.20
2007,07,04,14,39,19.50
2007,07,04,14,40,19.60
2007,07,04,14,41,19.70
2007,07,04,14,42,19.70
2007,07,04,14,43,19.80
2007,07,04,14,44,19.80
2007,07,04,14,45,19.90
2007,07,04,14,46,20.00
2007,07,04,14,47,20.10
2007,07,04,14,48,20.20
2007,07,04,14,49,20.20
2007,07,04,14,50,20.20
2007,07,04,14,51,20.20
2007,07,04,14,52,20.20
2007,07,04,14,53,20.20
2007,07,04,14,54,20.20
2007,07,04,14,55,20.10
2007,07,04,14,56,20.10
2007,07,04,14,57,20.10
2007,07,04,14,58,20.20
2007,07,04,14,59,20.20
2007,07,04,15,00,20.10
2007,07,04,15,01,20.00
2007,07,04,15,02,19.90
2007,07,04,15,03,20.00
2007,07,04,15,04,20.10
2007,07,04,15,05,20.20
2007,07,04,15,06,20.30
2007,07,04,15,07,20.40
2007,07,04,15,08,20.50
2007,07,04,15,09,20.50
2007,07,04,15,10,20.60
2007,07,04,15,11,20.60
2007,07,04,15,12,20.70
2007,07,04,15,13,20.60
2007,07,04,15,14,20.60
2007,07,04,15,15,20.60
2007,07,04,15,16,20.60
2007,07,04,15,17,20.60
2007,07,04,15,18,20.60
2007,07,04,15,19,20.70
2007,07,04,15,20,20.80
2007,07,04,15,21,20.90
2007,07,04,15,22,20.90
2007,07,04,15,23,21.00
2007,07,04,15,24,21.00
2007,07,04,15,25,21.20
2007,07,04,15,26,21.30
2007,07,04,15,27,21.50
2007,07,04,15,28,21.70
2007,07,04,15,29,21.80
2007,07,04,15,30,21.80
2007,07,04,15,31,21.80
2007,07,04,15,32,21.90
2007,07,04,15,33,21.90
2007,07,04,15,34,21.90
2007,07,04,15,35,21.90
2007,07,04,15,36,21.80
2007,07,04,15,37,21.80
2007,07,04,15,38,21.80
2007,07,04,15,39,21.80
2007,07,04,15,40,21.80
2007,07,04,15,41,21.90
2007,07,04,15,42,21.90
2007,07,04,15,43,21.90
2007,07,04,15,44,21.90
2007,07,04,15,45,21.90
2007,07,04,15,46,21.80
2007,07,04,15,47,21.80
2007,07,04,15,48,21.80
2007,07,04,15,49,21.80
2007,07,04,15,50,21.80
2007,07,04,15,51,21.90
2007,07,04,15,52,21.90
2007,07,04,15,53,22.00
2007,07,04,15,54,22.00
2007,07,04,15,55,22.00
2007,07,04,15,56,21.90
2007,07,04,15,57,21.80
2007,07,04,15,58,21.80
2007,07,04,15,59,21.70
2007,07,04,16,00,21.80
2007,07,04,16,01,21.80
2007,07,04,16,02,21.80
2007,07,04,16,03,21.90
2007,07,04,16,04,21.90
2007,07,04,16,05,21.90
2007,07,04,16,06,21.90
2007,07,04,16,07,21.90
2007,07,04,16,08,21.90
2007,07,04,16,09,21.90
2007,07,04,16,10,21.90
2007,07,04,16,11,21.90
2007,07,04,16,12,21.90
2007,07,04,16,13,22.00
2007,07,04,16,14,22.00
2007,07,04,16,15,21.90
2007,07,04,16,16,21.90
2007,07,04,16,17,21.90
2007,07,04,16,18,21.90
2007,07,04,16,19,22.00
2007,07,04,16,20,22.00
2007,07,04,16,21,21.90
2007,07,04,16,22,21.80
2007,07,04,16,23,21.80
2007,07,04,16,24,21.80
2007,07,04,16,25,21.70
2007,07,04,16,26,21.50
2007,07,04,16,27,21.40
2007,07,04,16,28,21.40
2007,07,04,16,29,21.40
2007,07,04,16,30,21.40
2007,07,04,16,31,21.40
2007,07,04,16,32,21.60
2007,07,04,16,33,21.60
2007,07,04,16,34,21.60
2007,07,04,16,35,21.60
2007,07,04,16,36,21.60
2007,07,04,16,37,21.60
2007,07,04,16,38,21.70
2007,07,04,16,39,21.70
2007,07,04,16,40,21.60
2007,07,04,16,41,21.60
2007,07,04,16,42,21.60
2007,07,04,16,43,21.60
2007,07,04,16,44,21.60
2007,07,04,16,45,21.60
2007,07,04,16,46,21.60
2007,07,04,16,47,21.60
2007,07,04,16,48,21.60
2007,07,04,16,49,21.60
2007,07,04,16,50,21.60
2007,07,04,16,51,21.60
2007,07,04,16,52,21.60
2007,07,04,16,53,21.60
2007,07,04,16,54,21.60
2007,07,04,16,55,21.70
2007,07,04,16,56,21.70
2007,07,04,16,57,21.80
2007,07,04,16,58,21.90
2007,07,04,16,59,22.00
2007,07,04,17,00,22.10
2007,07,04,17,01,22.10
2007,07,04,17,02,22.10
2007,07,04,17,03,22.00
2007,07,04,17,04,22.10
2007,07,04,17,05,22.10
2007,07,04,17,06,22.20
2007,07,04,17,07,22.30
2007,07,04,17,08,22.30
2007,07,04,17,09,22.30
2007,07,04,17,10,22.30
2007,07,04,17,11,22.30
2007,07,04,17,12,22.30
2007,07,04,17,13,22.30
2007,07,04,17,14,22.40
2007,07,04,17,15,22.40
2007,07,04,17,16,22.50
2007,07,04,17,17,22.50
2007,07,04,17,18,22.50
2007,07,04,17,19,22.60
2007,07,04,17,20,22.70
2007,07,04,17,21,22.70
2007,07,04,17,22,22.70